Regional Weather Roundup
Issued by NWS

Home | Current Version | Previous Version | Graphics & Text | Print | Product List | Glossary On
Versions: 1 2 3 4 5 6 7 8 9 10 11 12 13 14 15 16 17 18 19 20 21 22 23 24 25 26 27 28 29 30 31 32 33 34 35 36 37 38 39 40 41 42 43 44 45 46 47 48 49 50
000
ASUS44 KMEG 210100
RWRTN
TENNESSEE HOURLY STATE WEATHER ROUNDUP
NATIONAL WEATHER SERVICE MEMPHIS TN
700 PM CST SAT DEC 20 2014

TNZ002-004-019-021-049-052-054-088>092-210200-
WEST TENNESSEE

CITY           SKY/WX    TMP DP  RH WIND       PRES   REMARKS
MEMPHIS INTL   PTCLDY    44  33  65 NE5       30.24R
NWS MEMPHIS      N/A     43 N/A N/A MISG        N/A
JACKSON        CLEAR     39  31  72 NE5       30.25R
DYERSBURG      CLEAR     39  21  48 NE5       30.27S
UNION CITY     CLEAR     34  28  80 CALM      30.25S
PARIS          CLEAR     28  25  86 CALM      30.26R
LEXINGTON      CLEAR     36  28  75 NE3       30.24R
SAVANNAH       CLEAR     37  28  70 N3        30.24S
$$

TNZ008-025-027-028-033-062-065-066-210200-
NORTH MIDDLE TENNESSEE

CITY           SKY/WX    TMP DP  RH WIND       PRES   REMARKS
NASHVILLE      MOCLDY    36  28  73 N7        30.26S WCI  30
CLARKSVILLE    CLEAR     33  28  81 N3        30.27S
COOKEVILLE     CLEAR     28  27  93 CALM      30.22S
CROSSVILLE     MOCLDY    36  26  67 CALM      30.21R
$$

TNZ061-075-076-078-094-096-097-210200-
SOUTH MIDDLE TENNESSEE

CITY           SKY/WX    TMP DP  RH WIND       PRES   REMARKS
FAYETTEVILLE   CLEAR     37  27  65 MISG      30.21S
TULLAHOMA      CLEAR     37  27  65 N3        30.22S
WINCHESTER     CLEAR     34  28  80 CALM      30.22S
SHELBYVILLE    CLEAR     37  28  70 N6        30.24S WCI  33
$$

TNZ017-018-042-046-047-210200-
NORTHEAST TENNESSEE

CITY           SKY/WX    TMP DP  RH WIND       PRES   REMARKS
TRI CITIES     CLOUDY    41  37  86 SW5       30.22R
ELIZABETHTON   CLOUDY    37  37 100 CALM      30.21S FOG
$$

TNZ012-013-036-069-073-074-210200-
CENTRAL EAST TENNESSEE

CITY           SKY/WX    TMP DP  RH WIND       PRES   REMARKS
KNOXVILLE      CLOUDY    42  35  76 NE3       30.23R
OAK RIDGE      CLEAR     40  33  76 CALM      30.25R
GATLINBURG     CLOUDY    37  36  93 CALM      30.23S
$$

TNZ083-085-099-210200-
SOUTHEAST TENNESSEE

CITY           SKY/WX    TMP DP  RH WIND       PRES   REMARKS
CHATTANOOGA    PTCLDY    37  32  82 CALM      30.22S
$$

SKY/WX REPORTED AS FAIR MEANS FEW OR NO CLOUDS BELOW
12 THOUSAND FEET.




USA.gov is the U.S. government's official web portal to all federal, state and local government web resources and services.